Westerly, RI

9:09 AM EDT on September 23, 2017 (GMT -0400)
Westerly State

Weather History for KWST - May, 2014

Change the Weather History Date:

Monday, May 19, 2014

  Actual Average (KGON) Record (KGON)
Temperature  
Mean Temperature 60 °F -  
Max Temperature 69 °F 65 °F 84 °F (1998)
Min Temperature 50 °F 47 °F 37 °F (1981)
Degree Days  
Heating Degree Days 6    
Growing Degree Days 10 (Base 50)    
Moisture  
Dew Point 33 °F    
Average Humidity 40    
Maximum Humidity 69    
Minimum Humidity 21    
Precipitation  
Precipitation 0.00 in - - ()
Sea Level Pressure  
Sea Level Pressure 30.07 in    
Wind  
Wind Speed 8 mph (NNW)    
Max Wind Speed 18 mph    
Max Gust Speed 26 mph    
Visibility 10 miles    
Events      
Averages and records for this station are not official NWS values.
T = Trace of Precipitation, MM = Missing Value Source: NWS Daily Summary

Daily Weather History Graph

Daily Weather History Graph

Search for Another Location

Airport or City:

Trip Planner

Search our weather history database for the weather conditions in past years. The results will help you decide how hot, cold, wet, or windy it might be!

Date:

Astronomy

May. 19, 2014 Rise Set
Actual Time 5:24 AM EDT 8:03 PM EDT
Civil Twilight 4:52 AM EDT 8:35 PM EDT
Nautical Twilight 4:13 AM EDT 9:15 PM EDT
Astronomical Twilight 3:28 AM EDT 10:00 PM EDT
Moon No Moon Rise 10:19 AM EDT (5/19)
Length of Visible Light 15h 42m
Length of Day
14h 38m
Waning Gibbous, 71% of the Moon is Illuminated
May 19
Waning Gibbous
May 21
Last Quarter
May 28
New
Jun 5
First Quarter
Jun 13
Full

Hourly Weather History & Observations

Time (EDT) Temp. Dew Point Humidity Pressure Visibility Wind Dir Wind Speed Gust Speed Precip Events Conditions
12:53 AM 57.0 °F 34.0 °F 42% 30.07 in 10.0 mi NNW 8.1 mph 16.1 mph N/A   Overcast
1:53 AM 55.9 °F 34.0 °F 44% 30.07 in 10.0 mi NNW 10.4 mph - N/A   Overcast
2:53 AM 54.0 °F 35.1 °F 49% 30.08 in 10.0 mi NNW 8.1 mph - N/A   Overcast
3:53 AM 53.1 °F 35.1 °F 50% 30.09 in 10.0 mi Variable 5.8 mph - N/A   Overcast
4:53 AM 52.0 °F 35.1 °F 53% 30.10 in 10.0 mi NW 8.1 mph - N/A   Mostly Cloudy
5:53 AM 50.0 °F 35.1 °F 57% 30.12 in 10.0 mi NW 8.1 mph - N/A   Clear
6:53 AM 52.0 °F 35.1 °F 53% 30.13 in 10.0 mi Variable 5.8 mph - N/A   Clear
7:53 AM 55.9 °F 34.0 °F 44% 30.14 in 10.0 mi NNW 8.1 mph 16.1 mph N/A   Clear
9:53 AM 62.1 °F 30.0 °F 30% 30.11 in 10.0 mi NNW 18.4 mph 25.3 mph N/A   Clear
10:53 AM 64.0 °F 28.0 °F 26% 30.09 in 10.0 mi NNW 15.0 mph 26.5 mph N/A   Clear
11:53 AM 66.0 °F 28.0 °F 24% 30.08 in 10.0 mi NNW 12.7 mph 25.3 mph N/A   Scattered Clouds
12:53 PM 64.9 °F 27.0 °F 24% 30.06 in 10.0 mi NW 9.2 mph 18.4 mph N/A   Mostly Cloudy
2:53 PM 66.0 °F 27.0 °F 23% 30.04 in 10.0 mi NNW 12.7 mph 19.6 mph N/A   Overcast
3:53 PM 69.1 °F 27.0 °F 21% 30.03 in 10.0 mi NW 9.2 mph 21.9 mph N/A   Scattered Clouds
4:53 PM 66.9 °F 28.9 °F 24% 30.03 in 10.0 mi North 9.2 mph - N/A   Overcast
5:53 PM 68.0 °F 28.9 °F 23% 30.03 in 10.0 mi North 12.7 mph - N/A   Clear
6:53 PM 66.9 °F 28.9 °F 24% 30.04 in 10.0 mi NNW 10.4 mph - N/A   Clear
7:53 PM 64.0 °F 30.0 °F 28% 30.04 in 10.0 mi Calm Calm - N/A   Clear
8:53 PM 57.0 °F 37.0 °F 47% 30.05 in 10.0 mi Calm Calm - N/A   Clear
9:53 PM 55.0 °F 39.0 °F 55% 30.08 in 10.0 mi ESE 4.6 mph - N/A   Scattered Clouds
10:53 PM 54.0 °F 42.1 °F 64% 30.07 in 10.0 mi Calm Calm - N/A   Clear
11:53 PM 52.0 °F 42.1 °F 69% 30.06 in 10.0 mi North 3.5 mph - N/A   Overcast